Weather History for Oakland, CA

Change the Weather History Date:

Thursday, August 1, 2013

  Actual Average Record
Temperature  
Mean Temperature 61 °F 63 °F  
Max Temperature 68 °F 70 °F 86 °F (1957)
Min Temperature 54 °F 56 °F 52 °F (1956)
Degree Days  
Heating Degree Days 4 3  
Month to date heating degree days 4 3  
Since 1 June heating degree days 108 189  
Since 1 July heating degree days 48 86  
Cooling Degree Days 0 0  
Month to date cooling degree days 0 0  
Year to date cooling degree days 105 52  
Since 1 June cooling degree days 64 36  
Growing Degree Days 10 (Base 50)    
Moisture  
Dew Point 57 °F    
Average Humidity 84    
Maximum Humidity 100    
Minimum Humidity 68    
Precipitation  
Precipitation 0.00 in 0.00 in 0.03 in (1985)
Month to date precipitation 0.00 0.00  
Year to date precipitation 2.82 13.23  
Since 1 July precipitation T 0.01  
Sea Level Pressure  
Sea Level Pressure 30.05 in    
Wind  
Wind Speed 9 mph (West)    
Max Wind Speed 20 mph    
Max Gust Speed 28 mph    
Visibility 10 miles    
Events      
T = Trace of Precipitation, MM = Missing Value Source: NWS Daily Summary

Daily Weather History Graph

Daily Weather History Graph

Search for Another Location

Airport:

Trip Planner

Search our weather history database for the weather conditions in past years. The results will help you decide how hot, cold, wet, or windy it might be!

Date:

Astronomy

Aug. 01, 2013 Rise Set
Actual Time 6:12 AM PDT 8:17 PM PDT
Civil Twilight 5:43 AM PDT 8:46 PM PDT
Nautical Twilight 5:08 AM PDT 9:21 PM PDT
Astronomical Twilight 4:29 AM PDT 9:59 PM PDT
Moon 1:53 AM PDT (8/1) 4:29 PM PDT (8/1)
Length of Visible Light 15h 02m
Length of Day
14h 04m
Waning Crescent, 22% of the Moon is Illuminated
Aug 1
Waning Crescent
Aug 6
New
Aug 14
First Quarter
Aug 20
Full
Aug 28
Last Quarter

Hourly Weather History & Observations

Time (PDT) Temp. Dew Point Humidity Pressure Visibility Wind Dir Wind Speed Gust Speed Precip Events Conditions
12:53 AM 59.0 °F 57.9 °F 96% 30.05 in 10.0 mi WSW 13.8 mph - N/A   Overcast
1:53 AM 59.0 °F 57.9 °F 96% 30.04 in 10.0 mi West 11.5 mph - N/A   Overcast
2:53 AM 59.0 °F 57.9 °F 96% 30.04 in 10.0 mi WSW 8.1 mph - N/A   Overcast
3:53 AM 57.9 °F 57.9 °F 100% 30.03 in 10.0 mi West 9.2 mph - N/A   Mostly Cloudy
4:53 AM 59.0 °F 57.0 °F 93% 30.05 in 10.0 mi Calm Calm - N/A   Mostly Cloudy
5:43 AM 59.0 °F 57.2 °F 94% 30.06 in 10.0 mi SSW 3.5 mph - N/A   Overcast
5:53 AM 59.0 °F 57.0 °F 93% 30.06 in 10.0 mi West 12.7 mph 18.4 mph N/A   Overcast
6:53 AM 57.9 °F 57.0 °F 97% 30.06 in 10.0 mi West 11.5 mph - N/A   Overcast
7:53 AM 60.1 °F 57.0 °F 90% 30.08 in 10.0 mi West 10.4 mph - N/A   Mostly Cloudy
8:32 AM 57.2 °F 57.2 °F 100% 30.09 in 10.0 mi West 15.0 mph - N/A   Mostly Cloudy
8:53 AM 59.0 °F 55.9 °F 90% 30.09 in 10.0 mi SW 8.1 mph - N/A   Mostly Cloudy
9:28 AM 60.8 °F 57.2 °F 88% 30.09 in 10.0 mi WSW 10.4 mph - N/A   Mostly Cloudy
9:53 AM 61.0 °F 55.9 °F 83% 30.10 in 10.0 mi WSW 12.7 mph - N/A   Mostly Cloudy
10:53 AM 63.0 °F 55.0 °F 75% 30.10 in 10.0 mi WNW 4.6 mph - N/A   Mostly Cloudy
11:40 AM 62.6 °F 55.4 °F 77% 30.10 in 10.0 mi WSW 9.2 mph - N/A   Scattered Clouds
11:53 AM 64.0 °F 55.0 °F 73% 30.10 in 10.0 mi West 10.4 mph - N/A   Scattered Clouds
12:53 PM 66.0 °F 55.0 °F 68% 30.10 in 10.0 mi WSW 11.5 mph - N/A   Partly Cloudy
1:53 PM 66.0 °F 55.0 °F 68% 30.08 in 10.0 mi West 12.7 mph - N/A   Partly Cloudy
2:53 PM 66.9 °F 55.0 °F 66% 30.07 in 10.0 mi West 12.7 mph - N/A   Partly Cloudy
3:53 PM 66.9 °F 55.9 °F 68% 30.05 in 10.0 mi West 15.0 mph - N/A   Partly Cloudy
4:53 PM 66.0 °F 55.9 °F 70% 30.03 in 10.0 mi West 15.0 mph - N/A   Partly Cloudy
5:53 PM 66.0 °F 55.9 °F 70% 30.02 in 10.0 mi West 5.8 mph - N/A   Partly Cloudy
6:53 PM 64.0 °F 57.9 °F 80% 30.01 in 10.0 mi West 11.5 mph - N/A   Partly Cloudy
7:53 PM 62.1 °F 57.9 °F 86% 30.01 in 10.0 mi West 12.7 mph - N/A   Partly Cloudy
8:53 PM 60.1 °F 57.9 °F 93% 30.01 in 10.0 mi West 9.2 mph - N/A   Partly Cloudy
9:53 PM 60.1 °F 57.9 °F 93% 30.01 in 10.0 mi West 5.8 mph - N/A   Partly Cloudy
10:53 PM 55.9 °F 55.9 °F 100% 29.99 in 10.0 mi ENE 6.9 mph - N/A   Partly Cloudy
11:53 PM 57.0 °F 57.0 °F 100% 29.98 in 10.0 mi Calm Calm - N/A   Clear